Wenatchee, WA

10:26 PM PDT on April 29, 2017 (GMT -0700)
Pangborn Memorial

Weather History for KEAT - April, 2013

Change the Weather History Date:

Wednesday, April 17, 2013

  Actual Average Record
Temperature  
Mean Temperature 45 °F 52 °F  
Max Temperature 58 °F 63 °F 85 °F (1994)
Min Temperature 32 °F 41 °F 31 °F (1964)
Degree Days  
Heating Degree Days 20 13  
Month to date heating degree days 263 250  
Since 1 July heating degree days 5034 5362  
Cooling Degree Days 0 0  
Month to date cooling degree days 0 0  
Year to date cooling degree days 0 2  
Moisture  
Dew Point 25 °F    
Average Humidity 47    
Maximum Humidity 70    
Minimum Humidity 24    
Precipitation  
Precipitation 0.00 in 0.01 in 0.35 in (1988)
Month to date precipitation 0.84 0.27  
Year to date precipitation 1.99 2.78  
Sea Level Pressure  
Sea Level Pressure 30.37 in    
Wind  
Wind Speed 7 mph (WNW)    
Max Wind Speed 20 mph    
Max Gust Speed 24 mph    
Visibility 10 miles    
Events      
T = Trace of Precipitation, MM = Missing Value Source: NWS Daily Summary

Daily Weather History Graph

Daily Weather History Graph

Search for Another Location

Airport or City:

Trip Planner

Search our weather history database for the weather conditions in past years. The results will help you decide how hot, cold, wet, or windy it might be!

Date:

Astronomy

Apr. 17, 2013 Rise Set
Actual Time 6:08 AM PDT 7:53 PM PDT
Civil Twilight 5:35 AM PDT 8:26 PM PDT
Nautical Twilight 4:55 AM PDT 9:05 PM PDT
Astronomical Twilight 4:12 AM PDT 9:49 PM PDT
Moon 11:18 AM PDT (4/17) 1:42 AM PDT (4/17)
Length of Visible Light 14h 50m
Length of Day
13h 45m
Waxing Crescent, 43% of the Moon is Illuminated
Apr 17
Waxing Crescent
Apr 18
First Quarter
Apr 25
Full
May 2
Last Quarter
May 9
New

Hourly Weather History & Observations

Time (PDT) Temp. Windchill Dew Point Humidity Pressure Visibility Wind Dir Wind Speed Gust Speed Precip Events Conditions
12:55 AM 37.9 °F 35.5 °F 21.9 °F 53% 30.39 in 10.0 mi North 3.5 mph - N/A   Clear
1:55 AM 39.0 °F - 24.1 °F 55% 30.40 in 10.0 mi Calm Calm - N/A   Clear
2:55 AM 36.0 °F 29.6 °F 25.0 °F 64% 30.40 in 10.0 mi WNW 8.1 mph - N/A   Clear
3:55 AM 34.0 °F 26.6 °F 25.0 °F 70% 30.41 in 10.0 mi West 9.2 mph - N/A   Clear
4:55 AM 33.1 °F 26.9 °F 25.0 °F 72% 30.41 in 10.0 mi West 6.9 mph - N/A   Clear
5:55 AM 34.0 °F 27.2 °F 25.0 °F 70% 30.42 in 10.0 mi WNW 8.1 mph - N/A   Clear
7:55 AM 36.0 °F 31.1 °F 26.1 °F 67% 30.44 in 10.0 mi West 5.8 mph - N/A   Clear
8:55 AM 39.9 °F 34.5 °F 26.1 °F 58% 30.44 in 10.0 mi WNW 8.1 mph - N/A   Clear
9:55 AM 44.1 °F - 26.1 °F 49% 30.43 in 10.0 mi Calm Calm - N/A   Clear
10:55 AM 48.0 °F - 27.0 °F 44% 30.42 in 10.0 mi Calm Calm - N/A   Clear
11:55 AM 50.0 °F - 25.0 °F 38% 30.40 in 10.0 mi Variable 4.6 mph - N/A   Clear
12:55 PM 54.0 °F - 25.0 °F 33% 30.38 in 10.0 mi ESE 8.1 mph - N/A   Partly Cloudy
1:55 PM 55.9 °F - 23.0 °F 28% 30.36 in 10.0 mi Variable 3.5 mph - N/A   Clear
2:55 PM 57.0 °F - 24.1 °F 28% 30.35 in 10.0 mi Variable 3.5 mph - N/A   Mostly Cloudy
3:55 PM 57.0 °F - 25.0 °F 29% 30.33 in 10.0 mi WSW 9.2 mph - N/A   Mostly Cloudy
5:26 PM 57.2 °F - 23.0 °F 27% 30.30 in 10.0 mi NW 11.5 mph - N/A   Mostly Cloudy
5:55 PM 57.0 °F - 21.9 °F 26% 30.31 in 10.0 mi NW 15.0 mph 23.0 mph N/A   Overcast
6:55 PM 55.0 °F - 24.1 °F 30% 30.31 in 10.0 mi WNW 16.1 mph - N/A   Scattered Clouds
7:55 PM 52.0 °F - 25.0 °F 35% 30.32 in 10.0 mi NW 12.7 mph - N/A   Mostly Cloudy
8:55 PM 51.1 °F - 26.1 °F 38% 30.32 in 10.0 mi WNW 12.7 mph - N/A   Scattered Clouds
9:55 PM 48.9 °F - 27.0 °F 43% 30.33 in 10.0 mi West 11.5 mph - N/A   Partly Cloudy
11:55 PM 45.0 °F 40.1 °F 28.0 °F 52% 30.32 in 10.0 mi NW 9.2 mph - N/A   Clear